Location: Frydek-Mistek
(49.6830°N, 18.3330°E)
Time: 11:48:22
(UTC+02:00)

ISS - Pass Details

Date: 26 April 2024
Orbit: 411 x 419 km, 51.6° (Epoch: 26 May)

Event Time Altitude Azimuth Distance (km) Brightness Sun altitude
Exits shadow 03:54:30 23° 193° (SSW) 940 -2.5 -14.2°
Maximum altitude 03:55:53 33° 148° (SSE) 727 -2.7 -14.0°
Drops below altitude 10° 03:58:58 10° 82° (E) 1,504 0.0 -13.6°
Sets 04:01:10 0° 72° (ENE) 2,364 1.4 -13.4°
